Wind_Speed
34 33 30 29 30 32 30 30 29 30 31 31 31 28 29 29 24 23 22 20 18 17 19 16 14 13 11 12 13 15 16 20 17 17 17 16 16 19 20 22 24 25 25 27
33 32 32 32 32 32 32 30 30 31 32 31 33 29 30 30 26 25 24 22 23 22 21 19 17 15 15 16 16 16 17 19 20 21 22 19 19 20 22 24 25 28 29 29
33 34 33 32 33 32 31 31 31 32 32 32 33 31 31 31 28 27 26 25 26 25 24 22 20 20 20 21 22 20 20 21 23 25 25 24 23 23 25 26 27 28 30 32
37 36 34 34 34 32 31 31 31 32 33 33 32 32 28 30 29 29 29 29 28 27 26 26 26 25 24 25 26 25 25 25 26 26 27 28 28 28 29 29 31 32 31 31
39 36 35 35 33 33 33 33 33 33 33 33 32 34 24 27 29 30 31 30 29 30 30 31 30 28 28 29 30 30 30 30 30 30 31 32 33 32 31 34 34 35 35 35
43 41 40 38 36 36 36 36 36 36 35 36 34 34 30 27 28 30 31 31 32 34 34 34 35 34 35 35 35 34 34 35 35 35 36 37 37 37 35 36 37 36 36 35
47 44 42 40 39 39 39 38 38 38 39 38 38 36 38 34 32 31 33 35 37 38 38 39 40 40 40 40 39 38 39 40 39 39 41 42 41 41 39 39 40 40 40 39
50 49 46 44 43 42 42 41 41 41 41 40 41 39 39 41 35 36 37 37 38 40 41 42 43 44 45 44 43 43 43 44 45 45 45 45 45 44 44 42 43 42 42 41
52 52 51 49 48 49 48 46 44 45 46 46 44 41 41 42 45 40 40 42 42 43 43 45 46 45 45 46 47 48 48 48 48 48 48 47 48 48 46 44 44 44 43 43
55 54 53 53 52 52 52 49 48 50 50 51 50 47 47 47 46 46 42 46 46 46 47 46 47 45 46 47 49 50 50 50 51 51 50 50 50 49 48 46 44 45 47 46
56 57 57 58 58 55 55 55 54 53 53 54 53 51 51 52 52 52 52 49 48 48 49 49 49 49 48 49 50 52 53 54 55 54 54 53 52 52 51 49 48 48 49 48
49 54 58 57 56 56 55 56 56 57 57 57 57 57 56 56 56 57 57 55 55 54 52 51 51 52 53 53 53 54 54 55 55 55 55 55 53 52 51 52 52 52 51 52
48 57 55 56 57 59 60 57 54 54 54 58 58 57 59 59 57 57 56 57 56 55 55 54 55 54 54 54 55 55 54 53 53 53 53 53 54 53 51 51 52 55 57 56
52 53 54 55 52 51 52 51 50 50 53 55 56 53 56 54 54 55 56 57 58 59 58 57 56 55 55 54 55 55 55 55 54 52 52 55 56 57 57 58 55 52 54 53
52 53 53 54 55 55 55 53 52 53 56 60 58 58 55 53 52 54 56 56 56 58 59 60 60 60 58 57 58 58 59 60 60 61 62 59 58 59 57 54 53 54 53 52
45 53 57 56 55 56 58 55 54 56 57 55 54 52 53 57 57 60 60 60 62 64 64 64 65 67 67 66 65 64 65 65 64 62 61 61 61 60 57 55 57 56 55 54
53 53 53 55 54 54 58 54 53 52 53 53 55 48 49 52 55 56 57 58 59 59 60 60 61 62 62 63 62 62 59 57 58 60 62 62 62 61 60 61 62 62 62 63
56 57 57 57 58 60 57 55 55 57 58 58 60 56 57 57 55 57 60 61 62 63 63 63 64 65 65 66 66 66 68 68 68 69 68 66 66 67 68 69 69 69 70 71
63 61 59 58 61 65 61 61 63 64 63 62 64 64 64 61 63 65 66 67 69 70 71 71 71 72 72 72 72 73 74 76 78 79 78 79 78 77 76 75 75 78 78 78
57 57 56 58 62 66 64 60 60 64 67 66 66 67 67 68 71 69 72 74 75 76 76 76 77 78 80 81 81 81 83 85 86 86 85 85 85 84 82 80 79 78 77 76
53 54 56 56 58 63 63 63 59 59 63 63 66 66 66 68 70 69 70 70 72 72 73 75 77 76 77 79 81 82 82 81 80 78 77 76 77 79 79 79 77 75 72 69
51 51 53 54 57 63 61 59 60 59 60 61 63 65 65 65 65 65 66 67 67 68 69 70 72 73 74 75 77 78 77 77 77 77 77 76 75 73 73 73 73 71 69 69
57 57 57 58 58 56 59 63 65 64 62 62 62 62 64 66 65 65 66 67 69 71 71 72 73 73 73 76 78 78 79 80 81 81 82 82 80 79 78 75 74 73 72 70
63 62 64 64 62 63 64 66 69 71 71 71 70 71 71 71 71 71 71 71 72 73 76 77 79 80 80 81 83 84 85 86 86 86 86 86 85 83 81 79 77 76 73 70
67 68 68 71 68 69 70 72 74 77 77 77 77 77 78 79 79 80 80 80 80 80 80 81 83 83 83 83 83 84 85 84 84 84 84 85 84 82 80 76 73 68 64 62
58 60 67 70 73 76 76 75 75 78 80 81 82 81 82 84 84 84 83 83 84 83 82 81 80 79 77 76 74 74 74 74 74 74 75 75 74 73 73 70 69 63 59 50
Wind_Direction
221 221 223 225 224 228 234 236 238 239 238 240 240 237 242 245 244 246 245 251 244 238 242 237 236 234 241 258 267 277 286 292 298 302 304 308 312 321 321 317 314 307 305 304
223 223 224 226 231 234 237 239 243 244 244 242 242 237 240 247 244 242 244 245 236 235 239 241 245 250 255 260 266 266 273 283 292 290 297 297 299 309 315 315 315 311 304 299
224 224 227 228 231 235 240 240 241 246 247 247 245 238 237 242 244 243 238 242 241 239 242 244 247 250 256 264 270 269 276 279 286 285 294 293 295 300 306 311 314 313 309 302
225 226 228 229 233 235 239 242 245 247 248 247 248 247 236 239 242 243 240 239 240 243 245 250 254 255 257 262 271 273 276 277 279 282 289 291 292 294 297 304 308 312 310 304
231 231 231 233 235 238 240 242 245 248 252 251 249 255 232 237 243 244 238 241 246 247 246 249 253 258 260 263 268 272 274 274 278 280 284 287 291 293 295 298 302 306 309 308
232 231 233 233 235 239 241 243 245 247 250 250 251 254 246 242 241 242 243 243 245 247 250 252 253 255 258 261 265 269 273 275 277 277 281 284 289 291 291 293 296 300 304 301
234 235 237 238 239 241 243 244 247 249 249 253 255 252 259 254 251 247 243 243 246 248 249 251 254 257 258 261 264 266 268 271 273 274 278 280 282 287 288 290 293 294 297 300
234 236 237 240 243 243 243 244 246 249 251 250 253 253 254 259 253 254 253 249 246 248 250 253 254 255 259 261 262 264 267 269 270 272 274 276 280 283 284 287 289 290 291 295
238 238 239 239 239 242 243 244 247 248 250 252 253 254 257 259 263 256 251 253 253 251 251 252 254 257 259 261 263 265 267 268 271 273 273 275 277 280 282 283 284 284 284 286
238 238 239 239 240 242 244 244 244 247 249 252 254 254 255 257 260 265 261 253 253 256 256 257 259 262 263 264 264 265 267 269 270 272 274 276 278 281 283 284 284 282 283 284
237 238 238 240 241 243 244 244 245 248 248 252 254 254 256 257 256 259 263 265 263 259 259 262 265 266 266 265 266 269 270 272 274 276 278 280 281 282 283 283 282 281 281 281
238 240 241 241 242 243 243 245 247 247 248 249 254 254 258 260 262 262 264 268 270 270 268 264 265 266 267 266 264 263 265 268 271 273 275 277 278 279 281 282 283 283 283 284
233 237 238 240 241 242 243 244 247 248 250 252 253 256 257 258 261 265 268 269 272 275 274 274 275 274 273 271 272 273 272 272 273 274 275 279 281 283 283 282 282 283 284 285
235 237 240 243 247 246 247 248 249 250 249 250 252 255 257 262 262 262 264 266 268 269 270 271 271 270 270 271 273 275 274 273 273 272 273 278 279 278 279 282 282 282 284 285
237 237 238 241 243 245 245 246 249 252 255 255 255 252 253 257 262 262 262 265 267 267 269 270 271 272 273 273 276 279 279 279 280 281 283 281 281 283 284 281 281 284 286 287
242 241 240 242 247 249 250 251 254 256 256 260 261 259 257 258 258 260 261 262 263 265 268 270 272 274 275 276 275 275 276 279 282 283 284 286 287 288 287 285 286 286 285 285
241 243 244 244 245 247 248 252 258 260 259 261 260 260 253 252 254 256 258 261 263 265 266 267 269 271 274 275 276 277 276 275 278 281 282 283 283 281 283 284 283 284 285 285
240 242 244 247 247 248 252 252 253 254 253 254 255 254 251 254 254 255 258 261 263 265 268 271 272 273 275 277 277 277 277 279 281 282 282 281 280 278 277 277 278 280 279 280
251 251 252 252 253 252 250 254 256 256 256 257 255 253 254 255 256 259 262 263 267 270 271 272 272 273 275 276 276 277 278 279 281 283 284 284 283 282 281 280 279 278 279 279
246 247 247 250 254 258 256 258 260 262 258 258 260 262 263 264 266 268 270 270 270 271 271 271 272 273 274 276 277 277 277 279 280 281 282 283 283 283 283 283 282 282 283 281
248 249 250 253 255 257 259 260 259 258 264 264 264 265 266 265 265 265 266 268 269 270 271 272 273 273 274 275 277 278 279 279 280 281 281 282 283 283 283 282 283 284 283 282
250 252 254 255 256 259 261 263 263 264 263 261 262 263 264 265 266 267 268 269 270 271 272 273 274 274 275 276 277 278 279 280 281 281 282 282 281 282 283 283 283 284 284 284
249 252 255 256 260 260 259 261 265 267 267 266 265 265 265 266 266 266 266 269 271 273 274 275 275 276 277 278 279 278 279 279 280 281 281 280 280 280 281 281 282 283 283 283
250 252 254 256 258 262 263 263 265 268 270 270 269 269 269 270 271 271 271 271 272 273 275 277 278 279 280 280 281 281 280 280 280 279 279 279 280 280 280 280 280 282 282 282
252 253 257 259 260 261 263 264 265 266 267 269 270 273 275 276 276 277 278 279 279 279 279 280 280 281 281 281 280 279 278 278 278 278 278 279 280 280 280 280 282 283 282 281
259 261 260 261 261 261 261 262 265 268 270 271 272 273 275 277 277 278 278 279 279 279 279 279 278 277 278 278 279 279 279 280 281 281 282 282 282 282 282 280 283 283 279 275
Height
5802 5807 5813 5816 5817 5819 5823 5827 5829 5832 5834 5836 5839 5843 5844 5845 5851 5852 5854 5854 5855 5857 5857 5859 5859 5859 5860 5860 5860 5859 5858 5856 5856 5855 5854 5853 5851 5850 5848 5846 5844 5841 5840 5837
5798 5802 5804 5808 5812 5815 5818 5821 5824 5827 5828 5830 5832 5837 5839 5839 5845 5847 5848 5849 5850 5851 5852 5854 5856 5856 5856 5856 5856 5856 5855 5853 5852 5851 5850 5849 5848 5846 5843 5840 5838 5835 5833 5832
5791 5795 5798 5803 5806 5809 5812 5815 5818 5820 5822 5824 5826 5831 5833 5836 5838 5841 5843 5844 5844 5845 5848 5848 5850 5851 5850 5850 5849 5850 5850 5849 5847 5845 5844 5842 5842 5840 5838 5835 5832 5829 5826 5824
5782 5787 5791 5795 5799 5802 5806 5809 5811 5813 5815 5818 5820 5823 5829 5831 5833 5835 5836 5836 5839 5840 5842 5843 5844 5844 5844 5843 5842 5843 5843 5842 5841 5839 5838 5836 5835 5833 5831 5829 5826 5823 5819 5816
5778 5781 5785 5789 5793 5795 5799 5801 5804 5806 5809 5812 5815 5814 5826 5826 5827 5828 5829 5831 5833 5833 5835 5836 5836 5837 5838 5837 5835 5834 5835 5834 5833 5832 5831 5829 5827 5826 5824 5821 5818 5815 5812 5808
5768 5772 5776 5781 5784 5787 5791 5793 5796 5800 5802 5804 5808 5810 5815 5820 5821 5822 5823 5824 5825 5826 5826 5827 5827 5828 5827 5828 5828 5827 5826 5826 5825 5824 5823 5821 5819 5818 5816 5813 5810 5808 5805 5801
5760 5764 5769 5773 5776 5779 5783 5786 5789 5793 5794 5798 5800 5804 5806 5810 5812 5815 5816 5816 5816 5817 5818 5818 5818 5818 5818 5817 5818 5819 5818 5817 5817 5815 5814 5813 5811 5809 5807 5805 5802 5799 5795 5792
5748 5754 5759 5765 5768 5772 5774 5777 5780 5782 5786 5789 5789 5795 5797 5797 5804 5804 5805 5806 5808 5809 5809 5809 5809 5809 5809 5809 5808 5808 5808 5807 5806 5805 5804 5802 5801 5800 5797 5795 5792 5789 5786 5782
5739 5743 5748 5753 5756 5759 5764 5768 5771 5773 5775 5778 5782 5787 5789 5789 5787 5790 5793 5793 5795 5797 5798 5798 5797 5798 5799 5799 5798 5796 5796 5795 5795 5794 5793 5792 5790 5789 5787 5785 5783 5780 5776 5772
5727 5732 5736 5740 5744 5748 5753 5758 5759 5761 5765 5767 5772 5776 5778 5777 5778 5776 5777 5779 5783 5785 5784 5785 5786 5787 5787 5787 5786 5786 5785 5784 5783 5782 5781 5780 5779 5777 5775 5773 5771 5768 5765 5762
5715 5719 5725 5727 5733 5738 5741 5744 5747 5750 5753 5756 5761 5767 5767 5766 5767 5766 5764 5766 5770 5772 5771 5772 5773 5773 5773 5774 5774 5774 5773 5772 5772 5771 5770 5769 5767 5765 5762 5761 5758 5756 5753 5750
5705 5707 5710 5717 5720 5723 5727 5731 5733 5735 5742 5745 5749 5756 5755 5754 5755 5756 5754 5755 5754 5754 5758 5760 5761 5761 5760 5760 5760 5761 5761 5761 5759 5759 5758 5756 5755 5752 5751 5749 5746 5743 5740 5737
5692 5693 5697 5700 5705 5708 5712 5719 5722 5725 5729 5734 5736 5746 5743 5741 5742 5743 5745 5743 5741 5741 5742 5742 5743 5745 5746 5747 5746 5747 5747 5747 5746 5746 5745 5743 5741 5738 5737 5735 5732 5729 5726 5722
5680 5684 5687 5691 5697 5700 5702 5707 5710 5712 5713 5723 5725 5732 5729 5729 5730 5733 5731 5731 5728 5726 5729 5730 5731 5731 5731 5731 5731 5732 5731 5731 5731 5730 5729 5728 5725 5724 5722 5719 5716 5713 5710 5708
5668 5673 5677 5678 5682 5685 5690 5694 5697 5699 5704 5704 5717 5715 5719 5718 5717 5718 5716 5714 5713 5714 5714 5714 5715 5716 5717 5716 5715 5714 5713 5712 5712 5712 5711 5710 5708 5706 5705 5703 5700 5697 5695 5693
5657 5661 5664 5668 5670 5673 5675 5682 5685 5687 5690 5693 5695 5704 5707 5704 5704 5702 5702 5701 5699 5698 5699 5700 5699 5699 5699 5701 5702 5701 5699 5697 5696 5695 5692 5690 5689 5687 5685 5684 5682 5681 5678 5676
5645 5648 5651 5655 5658 5657 5660 5675 5672 5675 5676 5678 5678 5695 5690 5687 5686 5688 5686 5686 5685 5685 5686 5686 5686 5685 5685 5684 5683 5683 5683 5683 5683 5682 5680 5678 5675 5674 5671 5668 5666 5663 5660 5658
5632 5635 5638 5640 5642 5641 5659 5661 5661 5658 5658 5660 5665 5677 5672 5674 5676 5674 5672 5672 5672 5671 5671 5671 5671 5671 5669 5668 5669 5669 5666 5664 5663 5663 5663 5661 5660 5658 5655 5652 5649 5646 5643 5640
5617 5620 5622 5624 5624 5631 5645 5648 5646 5642 5645 5647 5653 5656 5656 5659 5659 5658 5658 5658 5657 5657 5657 5656 5655 5654 5652 5650 5651 5650 5648 5646 5644 5643 5642 5639 5636 5635 5633 5632 5630 5627 5624 5620
5602 5604 5607 5610 5608 5615 5640 5633 5625 5622 5624 5636 5635 5637 5638 5642 5642 5645 5640 5640 5640 5639 5639 5639 5639 5638 5635 5633 5633 5633 5632 5629 5626 5624 5621 5618 5614 5612 5610 5607 5605 5602 5599 5597
5588 5591 5593 5597 5595 5599 5623 5614 5606 5605 5621 5616 5618 5619 5619 5621 5625 5628 5626 5625 5622 5622 5621 5621 5621 5620 5618 5615 5613 5611 5609 5605 5604 5602 5599 5596 5592 5589 5586 5583 5581 5578 5576 5574
5577 5579 5582 5583 5580 5587 5605 5595 5591 5593 5594 5599 5600 5599 5602 5604 5608 5610 5609 5606 5604 5604 5602 5601 5601 5601 5598 5595 5593 5591 5588 5583 5581 5579 5576 5573 5570 5568 5565 5561 5559 5556 5554 5551
5563 5568 5570 5571 5572 5578 5581 5577 5573 5573 5577 5578 5580 5582 5583 5583 5587 5590 5593 5591 5588 5585 5584 5582 5581 5581 5579 5575 5572 5571 5567 5564 5560 5557 5553 5551 5548 5546 5543 5541 5539 5535 5532 5530
5547 5552 5552 5555 5564 5562 5564 5562 5558 5553 5553 5556 5559 5560 5562 5564 5565 5567 5569 5572 5571 5569 5565 5562 5560 5558 5557 5553 5549 5546 5543 5540 5537 5533 5529 5525 5522 5520 5519 5517 5516 5513 5510 5508
5534 5537 5541 5537 5546 5545 5543 5542 5539 5535 5536 5538 5540 5541 5540 5538 5542 5542 5544 5545 5546 5544 5543 5540 5536 5534 5532 5530 5527 5522 5517 5514 5512 5508 5505 5501 5497 5496 5494 5493 5492 5491 5489 5488
5524 5526 5522 5521 5523 5521 5523 5523 5519 5516 5517 5519 5521 5524 5522 5515 5515 5518 5521 5521 5520 5521 5519 5516 5512 5509 5507 5504 5503 5499 5495 5491 5488 5485 5482 5479 5476 5474 5472 5471 5471 5471 5471 5471